ARIANE 2 DEB, 27039

Orbit data source: Space-Track

ARIANE 2 DEB, 27039 is space debris in HEO originally from a launch on Fri, 27 Jan 1989 UTC launched from the French Guiana (FRGUI). Debris objects in space refer to the collection of defunct objects orbiting the Earth. Examples of debris include non-operational satellites, rocket bodies, and fragments generated from explosions, collisions, or faulty payload assembly.

Loading next visibility...
Identifier
27039, 1989-006U
Orbit
HEO
Country
Flag of FRFR
Related business
Manufacturer
EADS/LV
Mission
Spacecraft
Bus & Motor
Unknown
Mass
Unknown
Launch date (UTC)
1989-01-27 (37 years ago)
Launch vehicle
Unknown
Launch site
French Guiana (FRGUI)
Object type
Payload
Rocket body
Debris
Shape & HBR
Unknown shape, 0.6 m
Radar Cross Section
Medium (>0.1 m² and <1 m²)

Expand to show TLE details & history
Last TLE update: 4 days ago

TLE from 4 days ago
0 ARIANE 2 DEB
1 27039U 89006U   25345.80010356  .00000002  00000-0  64775-3 0  9990
2 27039   7.9161 229.6241 7140744 137.0399  17.3451  2.26220516201912
Epoch: 2025-12-11T19:12Z
TLE epoch observation values (Epoch: 2025-12-11T19:12:08.947Z)
Latitude
-6.12941°
Longitude
91.53363°
Altitude
6,263.544 km
Speed
6.841 km/s
True Right ascension
06h 41m 17s
True Declination
-6° 06' 32"
Sunlit
Object was in daylight at epoch
Visualization orbit readout
Latitude
Unknown
Longitude
Unknown
Altitude
Unknown
Speed
Unknown
Apparent Right ascension
Unknown
Apparent Declination
Unknown
Sunlit
N/A
Visualization observer readout
Local Sidereal Time
05:38:01
Azimuth
Unknown
Elevation
Unknown
Doppler factor
Unknown
Orbital elements
Apogee altitude
35,646.174 km
Perigee altitude
631.959 km
Semi-major axis
24,517.203 km
Eccentricity
0.71407
Inclination
7.9161°
RAAN
229.6241°
Arg. of periapsis
137.0399°
True anomaly
94.28936°
Mean anomaly
17.3451°
Eccentric anomaly
47.51866°
Mean motion
0.56538 °/min
Orbital period
636.75 mins
BSTAR
0.00064775
Loading maneuver chart data...
Computing Atmospheric mass density...
Loading historical data...
Loading historical data...
Loading historical data...
Loading historical data...
Loading historical data...
Loading historical data...
Loading historical data...

Documentation

Showing up to 5 results
|